STARLINK-2039 (47655 NORAD) Tracking and Keplerian Element Data

This shows tracking and keplerian element data for the satellite.

Feedback or suggestion? Click here.




ElementValue
Catalog47655
NameSTARLINK-2039
Epoch Orbit180
Epoch Day99.91667824
Epoch Year2021
RAAN208.6672
Inclination53.0493
Eccentricity0.0001474
Argument of Perigee80.3859
Mean Anonmoly205.4339
Mean Motion15.06416677
Decay Rate-0.00034628
L11 47655U 21012AM 21099.91667824 -.00034628 00000-0 -23161-2 0 9997
L22 47655 53.0493 208.6672 0001474 80.3859 205.4339 15.06416677 1801

Live tracking and technical data element details for STARLINK-2039 (NORAD 47655). STARLINK-2039 can be tracked NOW for your location showing map with azimuth and elevation plus other details from your city location.

Track the satellite on the map from your city or location and see movement details for azimuth, elevation, latitude, longitude, range, height, and movement on the map or in text.







IsCatalogInMostPopularTable: catalog: 47655, numindb: 15
Update: records affected: 1



GetName: 47655 STARLINK-2039

Hit Count: updated at: Sat, 10 Apr 2021 19:41:40 GMT